{"data":{"norad_id":51061,"epoch":"2026-05-25T03:42:11.492352Z","epoch_age_seconds":55699,"freshness":"FRESH","line1":"1 51061U 22002CF  26145.15429968  .00027856  00000+0  57267-3 0  9998","line2":"2 51061  97.3006 218.6424 0005949  64.4595 295.7269 15.45928473242698","mean_motion":15.45928473,"eccentricity":0.0005949,"inclination_deg":97.3006,"raan_deg":218.6424,"arg_perigee_deg":64.4595,"mean_anomaly_deg":295.7269,"bstar":0.00057267,"rev_number":24269,"period_min":93.147905944546,"perigee_km":424.60194513823,"apogee_km":432.70066186174,"semimajor_km":6806.7883035,"source":"CELESTRAK","updated_at":"2026-05-25T13:37:57.379431Z"}}